Location: Unspecified
(40.7945°N, 0.0000°E)
Time: 13:41:08
(UTC+00:00)

AIST 2D - Pass Details

Date: 24 July 2019
Orbit: 458 x 471 km, 97.2° (Epoch: 22 August)

Event Time Altitude Azimuth Distance (km) Brightness Sun altitude
Rises 23:45:16 0° 354° (N) 2,517 ? -29.2°
Reaches altitude 10° 23:47:47 10° 335° (NNW) 1,637 ? -29.3°
Enters shadow 23:49:08 16° 314° (NW) 1,319 ? -29.3°
